Weather Roundup
Issued by NWS Chicago, IL

Home | Current Version | Previous Version | Text Only | Print | Product List | Glossary On
Versions: 1 2 3 4 5 6 7 8 9 10 11 12 13 14 15 16 17 18 19 20 21 22 23 24 25 26 27 28 29 30 31 32 33 34 35 36 37 38 39 40 41 42 43 44 45 46 47 48 49 50
000
NZUS59 KLOT 190010
HRRLOT

CHICAGO AREA WEATHER ROUNDUP
NATIONAL WEATHER SERVICE CHICAGO/ROMEOVILLE IL
700 PM CDT THU SEP 18 2014

NOTE: "FAIR" INDICATES FEW OR NO CLOUDS BELOW 12,000 FEET WITH NO
SIGNIFICANT WEATHER AND/OR OBSTRUCTIONS TO VISIBILITY.

* THESE STATIONS ARE NOT UNDER NWS QUALITY CONTROL. THEY ALSO MAY NOT
  REPORT WEATHER SUCH AS PRECIPITATION OR FOG.

ILZ005-006-012>014-019>023-190100-
NORTHEAST ILLINOIS

CITY           SKY/WX    TMP DP  RH WIND       PRES   REMARKS
OHARE          PTCLDY    62  54  74 NE12      30.12S
6HR MIN TEMP:  62; 6HR MAX TEMP:  70;

MIDWAY         PTCLDY    63  55  75 NE10      30.11S
6HR MIN TEMP:  63; 6HR MAX TEMP:  72;

AURORA         CLEAR     63  53  70 E9        30.11R
6HR MIN TEMP:  63; 6HR MAX TEMP:  72;

LANSING*       CLEAR     61  56  83 NE7       30.12R
JOLIET*        CLEAR     63  52  67 NE7       30.11S
WAUKEGAN       CLOUDY    56  52  86 N3        30.13S
6HR MIN TEMP:  56; 6HR MAX TEMP:  62;

DUPAGE AIRPORT CLEAR     61  54  77 NE10      30.11S
6HR MIN TEMP:  61; 6HR MAX TEMP:  72;

WHEELING       CLEAR     59  54  83 N8        30.14F
6HR MIN TEMP:  59; 6HR MAX TEMP:  68;

KANKAKEE*      CLEAR     62  54  76 NE6       30.10R
MORRIS*        CLEAR     63  55  73 CALM      30.09S
LEWIS AIRPORT* CLEAR     61  53  73 E10       30.11R
NORTHERLY IS     N/A     60  55  83 N8          N/A
$$

WIZ051-052-058>065-066-070>072-190100-
SOUTHEAST WISCONSIN

CITY           SKY/WX    TMP DP  RH WIND       PRES   REMARKS
MILWAUKEE      MOCLDY    56  51  84 N6        30.15S
6HR MIN TEMP:  56; 6HR MAX TEMP:  59;

KENOSHA*       CLOUDY    57  52  83 NE8       30.15S
RACINE*        CLOUDY    57  52  83 N5        30.16S
BURLINGTON     MOCLDY    54  50  89 E6        30.15R
WAUKESHA       PTCLDY    54  48  82 E7        30.15S
WEST BEND      CLEAR     52  46  82 SE5       30.15S
$$

INZ001>003-010>013-019-020-190100-
NORTHWEST INDIANA

CITY           SKY/WX    TMP DP  RH WIND       PRES   REMARKS
GARY*          PTCLDY    63  57  82 N7        30.12S
MICHIGAN CITY* NOT AVBL
RENSSELAER*    NOT AVBL
VALPARAISO     CLEAR     60  53  77 N3        30.11R
$$

LMZ740>746-190100-
SOUTHERN LAKE MICHIGAN

STATION/POSITION TIME  SKY/WX   TEMP WIND        PRES    VSBY
                                AIR  DIR/SP/G
                 (UTC)          (F)  (DEG/KT/KT) (MB)    (MI)
HARRISON CRIB    0000            60  350/ 11/ 13   N/A
BURNHAM HARBOR   0000            59  360/  8/ 11   N/A
CALUMET HARBOR   0000            60  350/  8/ 10 1018.7S
BURNS HARBOR     NOT AVBL
MICHIGAN CITY    0000            63   10/ 11/ 13   N/A
$$

ABBREVIATIONS USED IN REMARKS
   TC - TEMPERATURE IN CELSIUS
  WCI - WIND CHILL INDEX
   HX - HEAT INDEX
  VSB - VISIBILITY
$$



USA.gov is the U.S. government's official web portal to all federal, state and local government web resources and services.